     2              OBSERVATION DATA    GPS                 RINEX VERSION / TYPE
teqc 1997Jul24 19970814                                     PGM / RUN BY / DATE
                                                            COMMENT
Original Marker Name: SNAP                                  COMMENT
Campaign Name: HPGN 1991                                    COMMENT
4-Character Station Name: SNAP                              COMMENT
6-Character Antenna Code: TRMSST                            COMMENT
Vertical Measurement Point: TGP                             COMMENT
Vertical Offset to Rinex Ref. Point: 0.0629                 COMMENT
Radial Measurement Point: OGP                               COMMENT
Radial Offset to Rinex Ref. Point: 0.2413                   COMMENT
Antenna Height from Field Measurement: 1.5183 m             COMMENT
Original XYZ: 0.0000 0.0000 0.0000                          COMMENT
New XYZ position is based on association with SCEC monument COMMENT
E1E9H7D4+0011. Position of that monument is believed to be  COMMENT
valid to within 1 m horizontally; vertical accuracy         COMMENT
should be no worse than 3-times this value.                 COMMENT
                                                            COMMENT
Revised Rinex header created by UCSD GPS archive for        COMMENT
GSAC on 02-Jun-1999 (1999:153) 22:24:20 GMT                 COMMENT
For assistance contact dagnew@ucsd.edu or hjohnson@ucsd.edu COMMENT
                                                            COMMENT
SANTA PAULA NCMN 1981                                       MARKER NAME
unknown NATIONAL GEODETIC SURVEY                            OBSERVER / AGENCY
485 TRIMBLE 4000 SST NP 4.30 / SP 4.20                      REC # / TYPE / VERS
16 TR 4000SST L1/L2 GEO                                     ANT # / TYPE
 -2554477.0000 -4608627.0000  3582138.0000                  APPROX POSITION XYZ
        1.4361        0.0000        0.0000                  ANTENNA: DELTA H/E/N
     1     1     0                                          WAVELENGTH FACT L1/2
     3    C1    L1    L2                                    # / TYPES OF OBSERV
     0                                                      INTERVAL
  1991     4    30     0    55    0.000000                  TIME OF FIRST OBS
  1991     4    30     1     3   30.000000                  TIME OF LAST OBS
     0                                                      # OF SATELLITES
                                                            END OF HEADER
 91  4 30  0 55  0.0000000  0  4G13G 2G 6G12
  20413884.1954         -0.03157
  22688942.023          -0.03216
  21844098.242          -0.15316
  22801867.859          -0.46616
 91  4 30  0 55 15.0000000  0  4G13G 2G 6G12
  20414179.9844       1556.10347
  22692537.1954      18893.27846
  21849593.9534      28878.00446
  22791299.305      -55543.273 6
 91  4 30  0 55 30.0000000  0  4G13G 2G 6G12
  20414490.6414       3187.91447        -0.06772
  22696137.7814      37803.34546        -0.12571
  21855105.0864      57834.83346        -0.30572
  22780735.4694    -111066.77446        -0.35171
 91  4 30  0 55 45.0000000  0  4G13G 2G 6G12
  20414816.9304       4901.15647      1334.92562
  22699738.5634      56736.40446     14752.87161
  21860628.0704      86876.32246     22629.39862
  22770172.7664    -166564.29246    -43245.14461
 91  4 30  0 56  0.0000000  0  4G13G 2G 6G12
  20415160.9454       6707.75047      2742.65862
  22703347.4064      75704.68646     29533.31761
  21866176.2504     116014.39946     45334.36262
  22759619.602     -222023.290 6    -86459.90121
 91  4 30  0 56 15.0000000  0  4G13G 2G 6G12
  20415524.1024       8614.43647      4228.38362
  22706964.7034      94715.28846     44346.74861
  21871739.8754     145255.79246     68119.83562
  22749073.8134    -277436.62346   -129639.09561
 91  4 30  0 56 30.0000000  0  4G13G 2G 6G12
  20415907.5474      10631.01947      5799.74662
  22710593.6174     113777.99346     59200.76661
  21877325.5864     174610.26146     90993.41962
  22738539.3674    -332793.93646   -172774.62161
 91  4 30  0 56 45.0000000  0  4G13G 2G 6G12
  20416310.9304      12751.26447      7451.88162
  22714230.5554     132887.06246     74090.91261
  21882932.664      204071.696 6    113950.35022
  22728016.914     -388100.820 6   -215870.85521
 91  4 30  0 57  0.0000000  0  4G13G 2G 6G12
  20416735.3754      14984.06047      9191.71962
  22717878.250      152051.692 6     89024.36321
  21888561.141      233649.082 6    136997.64822
  22717504.8134    -443347.53846   -258920.21861
 91  4 30  0 57 15.0000000  0  4G13G 2G 6G12
  20417179.2974      17320.43147     11012.26462
  22721534.8834     171263.19846    103994.33261
  21894207.9224     263333.75646    160128.53162
  22706999.8364    -498542.60846   -301929.32861
 91  4 30  0 57 30.0000000  0  4G13G 2G 6G12
  20417646.6804      19771.68547     12922.33062
  22725197.914      190532.934 6    119009.68021
  21899880.1334     293136.78246    183351.63861
  22696509.320     -553674.169 6   -344888.94421
 91  4 30  0 57 45.0000000  0  4G13G 2G 6G12
  20418133.6884      22334.83847     14919.58962
  22728876.0864     209858.38746    134068.44561
  21905574.0234     323055.31346    206664.74861
  22686028.195     -608744.523 6   -387800.88921
 91  4 30  0 58  0.0000000  0  4G13G 2G 6G12
  20418643.1334      25011.41247     17005.23162
  22732567.7504     229241.18546    149171.89761
  21911287.9924     353090.79346    230068.98861
  22675560.7974    -663751.77146   -430663.65161
 91  4 30  0 58 15.0000000  0  4G13G 2G 6G12
  20419173.8914      27800.22647     19178.33462
  22736266.1954     248680.70246    164319.53961
  21917027.9844     383242.32846    253563.65861
  22665105.8054    -718696.03246   -473477.33061
 91  4 30  0 58 30.0000000  0  4G13G 2G 6G12
  20419726.2894      30700.53747     21438.31062
  22739974.6334     268176.69746    179511.19361
  21922787.156      413509.518 6    277148.45221
  22654662.7034    -773577.31846   -516241.94161
 91  4 30  0 58 45.0000000  0  4G13G 2G 6G12
  20420299.0474      33709.91847     23783.27462
  22743693.2974     287726.79146    194745.00061
  21928568.742      443889.653 6    300821.25821
  22644230.5084    -828397.72246   -558959.09861
 91  4 30  0 59  0.0000000  0  4G13G 2G 6G12
  20420892.9144      36832.95147     26216.79862
  22747427.6484     307335.79446    210024.71361
  21934370.6884     474387.24646    324585.58661
  22633809.8594    -883152.26946   -601624.94661
 91  4 30  0 59 15.0000000  0  4G13G 2G 6G12
  20421508.2974      40065.80647     28735.89862
  22751170.1954     327000.08346    225347.50561
  21940196.1334     504998.65946    348438.59461
  22623403.6024    -937844.00946   -644241.85161
 91  4 30  0 59 30.0000000  0  4G13G 2G 6G12
  20422144.2504      43406.55247     31339.07962
  22754919.0864     346718.03346    240712.11461
  21946042.9304     535722.00246    372378.82962
  22613005.9924    -992474.30046   -686810.87561
 91  4 30  0 59 45.0000000  0  4G13G 2G 6G12
  20422801.1254      46857.57847     34028.18762
  22758683.1954     366492.42046    256120.69361
  21951910.7734     566559.67946    396408.15661
  22602623.4774   -1047040.02146   -729329.58561
 91  4 30  1  0  0.0000000  0  4G13G 2G 6G12
  20423479.9304      50421.11047     36804.96162
  22762458.5474     386325.95346    271575.35961
  21957801.4534     597514.08846    420528.44061
  22592251.594    -1101538.298 6   -771795.74321
 91  4 30  1  0 15.0000000  0  4G13G 2G 6G12
  20424177.4454      54095.22947     39667.90762
  22766245.5084     406216.78546    287074.67761
  21963714.9144     628583.45046    444738.30761
  22581895.4064   -1155970.36946   -814210.30561
 91  4 30  1  0 30.0000000  0  4G13G 2G 6G12
  20424897.0084      57874.75647     42612.98662
  22770038.7194     426159.96346    302614.78761
  21969647.2344     659762.32346    469033.50062
  22571549.5164   -1210340.98346   -856576.98061
 91  4 30  1  0 45.0000000  0  4G13G 2G 6G12
  20425637.2034      61765.12147     45644.44162
  22773843.5784     446161.43746    318200.32161
  21975601.6484     691056.46746    493418.51261
  22561215.2114   -1264643.84246   -898890.86461
 91  4 30  1  1  0.0000000  0  4G13G 2G 6G12
  20426400.2114      65768.18147     48763.70362
  22777659.5004     466223.13046    333832.77761
  21981578.1024     722467.79546    517894.84861
  22550894.0004   -1318876.52446   -941150.06261
 91  4 30  1  1 15.0000000  0  4G13G 2G 6G12
  20427181.6644      69878.93947     51966.88962
  22781489.3444     486340.43546    349508.55761
  21987576.961      753991.145 6    542458.46721
  22540587.063    -1373043.547 6   -983358.09821
 91  4 30  1  1 30.0000000  0  4G13G 2G 6G12
  20427985.4224      74103.20947     55258.52662
  22785331.2114     506519.38846    365232.38861
  21993600.5554     785632.55546    567114.07961
  22530293.6094   -1427138.37947  -1025509.88461
 91  4 30  1  1 45.0000000  0  4G13G 2G 6G12
  20428809.1484      78432.29447     58631.83062
  22789180.977      526751.660 6    380997.75321
  21999641.1724     817383.32246    591854.91262
  22520012.1484   -1481169.11146  -1067611.72561
 91  4 30  1  2  0.0000000  0  4G13G 2G 6G12
  20429653.6804      82872.56847     62091.78062
  22793042.8914     547043.87246    396809.83961
  22005706.1564     849249.99246    616686.05161
  22509743.172    -1535128.545 6  -1109658.02921
 91  4 30  1  2 15.0000000  0  4G13G 2G 6G12
  20430519.4064      87422.46847     65637.15362
  22796915.9844     567394.51946    412667.44461
  22011793.0944     881230.76046    641606.10162
  22499488.344    -1589018.072 7  -1151649.80421
 91  4 30  1  2 30.0000000  0  4G13G 2G 6G12
  20431406.2274      92079.08447     69265.67762
  22800798.5004     587800.91346    428568.49961
  22017898.6564     913322.75646    666612.80961
  22489245.547    -1642839.678 6  -1193588.70121
 91  4 30  1  2 45.0000000  0  4G13G 2G 6G12
  20432312.1484      96842.19647     72977.19262
  22804690.852      608263.461 6    444513.31521
  22024026.1644     945526.10746    691706.29761
  22479017.5314   -1696592.85846  -1235474.26261
 91  4 30  1  3  0.0000000  0  4G13G 2G 6G12
  20433239.3594     101711.32747     76771.31662
  22808597.4304     628781.69446    460501.50261
  22030175.8834     977840.12846    716886.02061
  22468802.5004   -1750277.83846  -1277306.67361
 91  4 30  1  3 15.0000000  0  4G13G 2G 6G12
  20434185.7504     106684.72047     80646.68862
  22812511.5164     649354.25846    476532.04461
  22036346.4774    1010263.13346    742150.66461
  22458597.8594   -1803895.63246  -1319086.73861
